This is the latest recevied weather packets stored in our database for station/object DB0ASF-4. If no packets are shown the sender has not sent any weather packets the latest 10 day(s).
| Time | Temp. | Humidity | Pressure | Rain* | Wind** | Luminosity | Snow |
|---|---|---|---|---|---|---|---|
| 1777562356 | 18.33° C | 19% | 1031.6 hPa | 0 mm | - | - | - |
| 1777561756 | 18.89° C | 19% | 1031.6 hPa | 0 mm | - | - | - |
| 1777561156 | 20° C | 18% | 1031.4 hPa | 0 mm | - | - | - |
| 1777560556 | 21.67° C | 16% | 1031.6 hPa | 0 mm | - | - | - |
| 1777559956 | 23.33° C | 16% | 1031.8 hPa | 0 mm | - | - | - |
| 1777559356 | 25° C | 15% | 1031.8 hPa | 0 mm | - | - | - |
| 1777558756 | 27.22° C | 15% | 1032 hPa | 0 mm | - | - | - |
| 1777558156 | 27.78° C | 14% | 1032 hPa | 0 mm | - | - | - |
| 1777557556 | 26.67° C | 16% | 1032.3 hPa | 0 mm | - | - | - |
| 1777556956 | 27.22° C | 15% | 1032.3 hPa | 0 mm | - | - | - |
| 1777556356 | 27.22° C | 15% | 1032.1 hPa | 0 mm | - | - | - |
| 1777555756 | 26.67° C | 15% | 1032.3 hPa | 0 mm | - | - | - |
| 1777555156 | 26.11° C | 17% | 1032.4 hPa | 0 mm | - | - | - |
| 1777554556 | 24.44° C | 17% | 1032.5 hPa | 0 mm | - | - | - |
| 1777553956 | 23.33° C | 18% | 1032.9 hPa | 0 mm | - | - | - |
| 1777553356 | 22.22° C | 19% | 1032.8 hPa | 0 mm | - | - | - |
| 1777552756 | 21.11° C | 19% | 1032.8 hPa | 0 mm | - | - | - |
| 1777552156 | 20.56° C | 19% | 1033 hPa | 0 mm | - | - | - |
| 1777551556 | 20° C | 20% | 1033 hPa | 0 mm | - | - | - |
| 1777550956 | 20° C | 20% | 1033.1 hPa | 0 mm | - | - | - |
| 1777550356 | 20° C | 20% | 1033.1 hPa | 0 mm | - | - | - |
| 1777549756 | 20° C | 20% | 1033.4 hPa | 0 mm | - | - | - |
| 1777549156 | 19.44° C | 20% | 1033.5 hPa | 0 mm | - | - | - |
| 1777548556 | 18.89° C | 20% | 1033.5 hPa | 0 mm | - | - | - |
| 1777547956 | 18.89° C | 20% | 1033.6 hPa | 0 mm | - | - | - |
* Rain latest hour (hover to see other rain measurements)
** Current wind speed in m/s (hover to see current wind gust speed)